This demonstration page uses our WeatherBlox Daily Observations layout. Learn more.

Left ArrowRight Arrow

39.51506, -84.39828

Hourly Observations for June 3, 2020

Temp ( °F °C ) Dew Point ( °F °C ) Humidity (%) Winds ( mph kmh ) Pressure ( in mb ) Visibility ( mi km ) Precip ( " mm )
12:15 am 00:15 Clear 70 21 58 14.4 66 66 WSW 6 9 29.94 1014 10 16.0934 0 0
12:35 am 00:35 Clear 70 20.9 58 14.7 68 68 WSW 7 11 29.94 1014 10 16.0934 0 0
12:55 am 00:55 Clear 70 21.2 58 14.6 66 66 WSW 8 13 29.93 1014 10 16.0934 0 0
1:15 am 01:15 Clear 70 21 58 14.3 66 66 WSW 8 13 29.93 1014 10 16.0934 0 0
1:35 am 01:35 Clear 69 20.6 57 14.1 66 66 WSW 10 17 29.92 1013 10 16.0934 0 0
1:55 am 01:55 Clear 69 20.6 57 14.1 66 66 WSW 8 13 29.92 1013 10 16.0934 0 0
2:15 am 02:15 Clear 68 20.1 58 14.2 69 69 WSW 7 11 29.92 1013 10 16.0934 0 0
2:35 am 02:35 Clear 67 19.7 58 14.2 71 71 WSW 6 9 29.93 1013 10 16.0934 0 0
2:55 am 02:55 Clear 67 19.4 58 14.2 72 72 WSW 6 9 29.93 1013 10 16.0934 0 0
3:15 am 03:15 Clear 66 18.9 58 14.4 75 75 WSW 7 11 29.92 1013 10 16.0934 0 0
3:35 am 03:35 Clear 65 18.3 58 14.6 79 79 SW 7 11 29.92 1013 10 16.0934 0 0
3:55 am 03:55 Clear 63 17.4 58 14.4 83 83 SW 6 9 29.93 1014 10 16.0934 0 0
4:15 am 04:15 Clear 63 17.3 58 14.6 84 84 WSW 3 6 29.93 1014 10 16.0934 0 0
4:35 am 04:35 Clear 63 17 58 14.4 85 85 W 3 6 29.93 1014 10 16.0934 0 0
4:55 am 04:55 Clear 62 16.5 59 14.8 90 90 Calm 29.93 1014 10 16.0934 0 0
5:15 am 05:15 Clear 61 16 58 14.6 91 91 WSW 3 6 29.92 1013 10 16.0934 0 0
5:35 am 05:35 Clear 62 16.4 58 14.4 88 88 WSW 5 7 29.92 1013 10 16.0934 0 0
5:55 am 05:55 Clear 62 16.8 58 14.5 86 86 WSW 6 9 29.92 1013 10 16.0934 0 0
6:15 am 06:15 Sunny 61 16.2 58 14.5 90 90 WSW 6 9 29.91 1013 10 16.0934 0 0
6:35 am 06:35 Sunny 63 17.1 58 14.5 85 85 W 3 6 29.92 1013 10 16.0934 0 0
6:55 am 06:55 Sunny 64 17.7 59 14.8 83 83 SW 7 11 29.91 1013 10 16.0934 0 0
7:15 am 07:15 Sunny 65 18.4 59 15.1 81 81 WSW 6 9 29.92 1013 10 16.0934 0 0
7:35 am 07:35 Sunny 67 19.3 60 15.5 79 79 WSW 3 6 29.92 1013 7 11.26538 0 0
7:55 am 07:55 Partly Cloudy 69 20.3 60 15.5 74 74 WSW 5 7 29.91 1013 10 16.0934 0 0
8:15 am 08:15 Hazy 70 21.1 60 15.8 72 72 WSW 7 11 29.91 1013 4 6.43736 0 0
8:35 am 08:35 Sunny 72 22.3 61 16.3 69 69 WSW 8 13 29.91 1013 10 16.0934 0 0
8:55 am 08:55 Sunny 73 23 61 16 65 65 undefined N/A N/A N/A 0 0
9:15 am 09:15 Sunny with Thunderstorms 75 24.1 63 17 65 65 WSW 10 17 29.9 1012 10 16.0934 0 0
9:35 am 09:35 Sunny 77 24.9 64 17.7 64 64 WSW 9 15 29.88 1012 N/A 0 0
9:55 am 09:55 Sunny 77 24.8 63 17.1 62 62 WSW 15 24 29.87 1012 N/A 0 0
10:15 am 10:15 Sunny 76 24.2 63 17.4 66 66 W 9 15 29.88 1012 N/A 0 0
10:35 am 10:35 Sunny 77 25 64 18 65 65 undefined N/A N/A N/A 0 0
10:55 am 10:55 undefined 79 25.9 65 18.5 64 64 WSW 13 20 29.86 1011 N/A 0 0
11:15 am 11:15 Sunny 79 26 66 19 65 65 undefined N/A N/A N/A 0 0
11:35 am 11:35 Sunny 80 26.4 66 19.1 64 64 W 7 11 29.86 1011 N/A 0 0
11:55 am 11:55 Sunny 82 27.5 67 19.7 63 63 WSW 9 15 29.87 1011 10 16.0934 0 0
12:15 pm 12:15 Sunny 83 28.3 68 20.2 62 62 WSW 12 19 29.86 1011 10 16.0934 0 0
12:35 pm 12:35 Sunny 84 28.7 69 20.8 62 62 WSW 12 19 29.85 1011 10 16.0934 0 0
12:55 pm 12:55 Sunny 84 29 68 20 58 58 W 16 26 29.84 1011 10 16.0934 0 0
1:15 pm 13:15 Sunny 85 29.6 69 20.5 58 58 W 12 19 29.85 1011 10 16.0934 0 0
1:35 pm 13:35 Sunny 86 29.8 68 20.2 56 56 W 14 22 29.84 1011 10 16.0934 0 0
1:55 pm 13:55 Sunny 86 29.8 69 20.5 57 57 W 13 20 29.83 1010 10 16.0934 0 0
2:15 pm 14:15 Partly Cloudy 87 30.5 70 21.2 58 58 SW 15 24 29.83 1010 10 16.0934 0 0
2:35 pm 14:35 Partly Cloudy 87 30.6 70 21.2 57 57 WSW 15 24 29.83 1010 10 16.0934 0 0
2:55 pm 14:55 Sunny 87 30.5 69 20.8 56 56 WSW 13 20 29.83 1010 10 16.0934 0 0
3:15 pm 15:15 Partly Cloudy 87 30.6 70 21 57 57 WSW 15 24 29.81 1010 10 16.0934 0 0
3:35 pm 15:35 Partly Cloudy 87 30.6 68 19.9 53 53 WSW 12 19 29.81 1010 10 16.0934 0 0
3:55 pm 15:55 Sunny 88 31.1 68 20.2 52 52 W 10 17 29.8 1009 10 16.0934 0 0
4:15 pm 16:15 Partly Cloudy 88 30.9 68 20.2 53 53 SW 12 19 29.79 1009 10 16.0934 0 0
4:35 pm 16:35 Partly Cloudy 87 30.6 69 20.4 54 54 W 14 22 29.78 1008 10 16.0934 0 0
4:55 pm 16:55 Partly Cloudy 87 30.3 68 20.2 55 55 WSW 14 22 29.78 1009 10 16.0934 0 0
5:15 pm 17:15 Sunny 88 31 68 20 52 52 WSW 9 15 29.77 1008 10 16.0934 0 0
5:35 pm 17:35 Sunny 85 29.7 69 20.3 57 57 SW 8 13 29.76 1008 10 16.0934 0 0
5:55 pm 17:55 Sunny 87 30.8 69 20.3 54 54 W 9 15 29.77 1008 10 16.0934 0 0
6:15 pm 18:15 Sunny 86 30.2 68 20.1 55 55 WSW 8 13 29.75 1008 10 16.0934 0 0
6:35 pm 18:35 Sunny 84 29 69 20.3 59 59 WSW 8 13 29.75 1008 10 16.0934 0 0
6:55 pm 18:55 Sunny 83 28.2 70 21.2 66 66 WSW 7 11 29.75 1007 10 16.0934 0 0
7:15 pm 19:15 Mostly Cloudy 83 28.2 70 20.9 65 65 WSW 6 9 29.76 1008 10 16.0934 0 0
7:35 pm 19:35 Cloudy with Heavy Rain 74 23.5 67 19.5 78 78 WSW 20 31 29.8 1009 10 16.0934 0.03 0.762
7:55 pm 19:55 Windy with Storms Likely 72 22.4 68 19.9 86 86 S 22 35 29.79 1009 5 8.0467 0.15 3.81
8:15 pm 20:15 Cloudy with Heavy Thunderstorms 71 21.6 68 19.9 90 90 SSW 17 28 29.82 1010 10 16.0934 0.05 1.27
8:35 pm 20:35 Cloudy with Light Thunderstorms 71 21.5 66 19.1 86 86 S 5 7 29.83 1010 10 16.0934 0.06 1.524
8:55 pm 20:55 Cloudy 71 21.4 67 19.2 87 87 WSW 10 17 29.84 1011 10 16.0934 0.07 1.778
9:15 pm 21:15 Cloudy with Heavy Thunderstorms 69 20.6 64 17.6 83 83 SSW 12 19 29.84 1011 10 16.0934 0.02 0.508
9:35 pm 21:35 Mostly Cloudy 68 19.9 62 16.7 82 82 SW 15 24 29.85 1011 10 16.0934 0.02 0.508
9:55 pm 21:55 Cloudy 65 18.6 62 16.7 89 89 Calm 29.85 1011 10 16.0934 0.08 2.032
10:15 pm 22:15 Mostly Cloudy 65 18.3 64 17.5 95 95 Calm 29.86 1011 10 16.0934 0.01 0.254
10:35 pm 22:35 Mostly Cloudy 65 18.5 64 17.8 96 96 Calm 29.85 1011 10 16.0934 0.01 0.254
10:55 pm 22:55 Clear 66 18.7 65 18.1 96 96 ENE 3 6 29.85 1011 10 16.0934 0.01 0.254
11:15 pm 23:15 Partly Cloudy 65 18.5 64 18 97 97 Calm 29.86 1011 10 16.0934 0 0
11:35 pm 23:35 Partly Cloudy 65 18.2 64 18 99 99 Calm 29.86 1011 10 16.0934 0 0
11:55 pm 23:55 Partly Cloudy 65 18.4 65 18.3 99 99 Calm 29.86 1011 10 16.0934 0 0

Powered by AerisWeather